Regional Weather Roundup
Issued by NWS

Home | Current Version | Previous Version | Graphics & Text | Print | Product List | Glossary On
Versions: 1 2 3 4 5 6 7 8 9 10 11 12 13 14 15 16 17 18 19 20 21 22 23 24 25 26 27 28 29 30 31 32 33 34 35 36 37 38 39 40 41 42 43 44 45 46 47 48 49 50
000
ASUS43 KLOT 301706
RWRIL

ILLINOIS REGIONAL WEATHER ROUNDUP
NATIONAL WEATHER SERVICE CHICAGO/ROMEOVILLE IL
1200 PM CDT WED JUL 30 2014

NOTE: "FAIR" INDICATES FEW OR NO CLOUDS BELOW 12,000 FEET WITH NO
SIGNIFICANT WEATHER AND/OR OBSTRUCTIONS TO VISIBILITY.

* THESE STATIONS ARE NOT UNDER NWS QUALITY CONTROL. THEY ALSO MAY NOT
  REPORT WEATHER SUCH AS PRECIPITATION OR FOG.

ILZ001-002-007-009-015-016-024-301800-
NORTHWEST ILLINOIS

CITY           SKY/WX    TMP DP  RH WIND       PRES   REMARKS
MOLINE         SUNNY     78  59  51 N7        30.08S
STERLING*      SUNNY     79  61  53 NW5       30.08S HX  80
SAVANNA*       SUNNY     75  58  53 NW6       30.07F
$$

ILZ003-004-008-010-011-017-018-301800-
NORTH CENTRAL ILLINOIS

CITY           SKY/WX    TMP DP  RH WIND       PRES   REMARKS
ROCKFORD       MOSUNNY   75  57  53 W8        30.08R
FREEPORT*      SUNNY     73  61  65 W8        30.10S
ROCHELLE*      SUNNY     74  56  52 W6        30.07F
DE KALB*       SUNNY     71  59  65 N7        30.07F
PERU*          SUNNY     76  59  56 W10       30.08S
$$

ILZ005-006-012>014-019>023-301800-
NORTHEAST ILLINOIS

CITY           SKY/WX    TMP DP  RH WIND       PRES   REMARKS
CHICAGO-OHARE  MOSUNNY   77  52  41 NW10      30.04F
CHICAGO-MIDWAY MOSUNNY   77  55  46 VRB5      30.04S
AURORA         SUNNY     74  57  55 NW7       30.07R
LANSING*       SUNNY     75  56  50 W7        30.05S
JOLIET*        SUNNY     74  57  53 CALM      30.06S
WAUKEGAN       PTSUNNY   69  60  73 E7        30.04S
DUPAGE AIRPORT SUNNY     77  56  48 W12       30.05S
KANKAKEE*      MOSUNNY   76  61  59 W8        30.07S
WHEELING       SUNNY     77  55  46 NW8       30.05F
MORRIS*        SUNNY     75  61  62 W10       30.06S
ROMEOVILLE*    SUNNY     75  57  53 W6        30.06S
NORTHERLY ISL    N/A     69  61  75 NE5         N/A
$$

LMZ740>746-301800-
SOUTHERN LAKE MICHIGAN

STATION/POSITION SKY/WX   TEMP    WIND        PRES    VSBY  WAVE
                          AIR SEA DIR/SP/G                  HT/PER
                          (F)     (DEG/KT/KT) (MB)    (MI)  (FT/S)
SOUTHERN BUOY              59 61  300/  8/  8 1017.8R         1
WAUKEGAN HARBOR            63      50/  9/ 10   N/A
HARRISON CRIB              65      40/  6/  7   N/A
BURNHAM HARBOR             68      50/  4/  8   N/A
CALUMET HARBOR             67      30/  7/  9 1016.4R
MICHIGAN CITY              66     250/  6/  7   N/A
MICHIGAN CITY 6N           65 69  290/  4/  6   N/A           1/ 3
ST. JOSEPH                 64 68  280/  8/ 10   N/A           1/ 3
$$

ILZ025>027-034>036-040-047-049-050-058-095>099-301800-
WEST-CENTRAL ILLINOIS

CITY           SKY/WX    TMP DP  RH WIND       PRES   REMARKS
QUINCY         MOSUNNY   77  56  48 NW8       30.10F
GALESBURG*     SUNNY     79  60  52 W9        30.09F HX  80
MACOMB*        SUNNY     75  60  58 NW6       30.12S
JACKSONVILLE*  MOSUNNY   78  61  55 NW6       30.11S HX  80
PITTSFIELD*    MOSUNNY   78  57  48 NW6       30.11F
$$

ILZ028>032-037-038-041>044-048-051>054-059>061-301800-
CENTRAL ILLINOIS

CITY           SKY/WX    TMP DP  RH WIND       PRES   REMARKS
PONTIAC        SUNNY     77  61  57 W6        30.07S
DECATUR        MOSUNNY   79  59  50 W13       30.09S HX  80
PEORIA         MOSUNNY   80  59  48 W6        30.08F HX  81
LACON*         MOSUNNY   76  59  54 W5        30.07S
LINCOLN*       SUNNY     79  59  50 NW6       30.06S HX  80
SPRINGFIELD    MOSUNNY   79  60  52 VRB7      30.09F HX  80
TAYLORVILLE    PTSUNNY   77  61  57 W5        30.10S
$$

ILZ033-039-045-046-055>057-062-063-301800-
EAST-CENTRAL ILLINOIS

CITY           SKY/WX    TMP DP  RH WIND       PRES   REMARKS
CHAMPAIGN      MOSUNNY   75  64  68 W9        30.08F
DANVILLE*      MOSUNNY   75  63  65 W9        30.05S
RANTOUL*       SUNNY     78  61  57 W8        30.08F
MATTOON        MOSUNNY   77  59  53 W9        30.09S
PARIS*         MOSUNNY   76  62  59 W6        30.09S
$$

ILZ079-100>102-301800-
SOUTHWEST ILLINOIS

CITY           SKY/WX    TMP DP  RH WIND       PRES   REMARKS
BELLEVILLE     SUNNY     79  58  47 VRB5      30.09F HX  80
CAHOKIA*       MOSUNNY   81  56  42 S6        30.09F HX  81
SPARTA*        PTSUNNY   75  61  60 SW6       30.12S
$$

ILZ064>066-069>071-074>076-080>082-084>086-088>090-092>094-301800-
SOUTH-CENTRAL ILLINOIS

CITY           SKY/WX    TMP DP  RH WIND       PRES   REMARKS
CARBONDALE     PTSUNNY   75  57  53 SW9       30.12S
CAIRO*         PTSUNNY   77  60  57 SE3       30.12F
EFFINGHAM*     PTSUNNY   78  53  41 W7        30.10S
MARION         PTSUNNY   79  61  53 SW12      30.13S HX  80
MT. VERNON     SUNNY     81  57  44 SW7       30.11S HX  81
CENTRALIA*     MOSUNNY   89  54  30 CALM      30.10F HX  86
SALEM*         MOSUNNY  N/A N/A N/A NW5       30.11S
METROPOLIS*    PTSUNNY   76  54  45 W3        30.12F
$$

ILZ067-068-072-073-078-083-087-091-301800-
SOUTHEAST ILLINOIS

CITY           SKY/WX    TMP DP  RH WIND       PRES   REMARKS
LAWRENCEVILLE  MOSUNNY   77  60  55 W10       30.10S
FLORA*         SUNNY     78  57  48 SW8       30.10F
FAIRFIELD*     MOSUNNY   79  59  50 CALM      30.10S HX  80
HARRISBURG*    MOSUNNY   78  61  54 W9        30.12S HX  80
ROBINSON*      MOSUNNY   79  64  59 W7        30.10F HX  81
CARMI*         MOSUNNY   79  64  61 W3        30.10S HX  81
$$

ABBREVIATIONS USED IN REMARKS
   TC - TEMPERATURE IN CELSIUS
  WCI - WIND CHILL INDEX
   HX - HEAT INDEX
  VSB - VISIBILITY
$$




USA.gov is the U.S. government's official web portal to all federal, state and local government web resources and services.